Terminal Aerodrome Forecast
Issued by NWS Twin Cities, MN

Home | Current Version | Previous Version | Text Only | Print | Product List | Glossary On
Versions: 1 2 3 4 5 6 7 8 9 10 11 12 13 14 15 16 17 18 19 20 21 22 23 24 25 26 27 28 29 30 31
000
FTUS43 KMPX 290520
TAFMSP
TAF
KMSP 290520Z 2906/3012 30003KT P6SM SCT017 OVC035
     FM290800 29004KT P6SM OVC025
     FM291000 31005KT 6SM BR BKN012 OVC025
     FM291500 28011G17KT P6SM SCT035 BKN060
     FM292300 27008KT P6SM SCT200=

USA.gov is the U.S. government's official web portal to all federal, state and local government web resources and services.